This demonstration page uses our WeatherBlox Daily Observations layout. Learn more.

Left ArrowRight Arrow

40.92945, -100.16068

Hourly Observations for September 7, 2017

Temp ( °F °C ) Dew Point ( °F °C ) Humidity (%) Winds ( mph kmh ) Pressure ( in mb ) Visibility ( mi km ) Precip ( " mm )
12:15 am 00:15 Clear 53 11.7 45 7.1 74 74 Calm 30.15 1021 10 16 0.00 0.00
12:35 am 00:35 Clear 51 10.8 44 6.9 77 77 Calm 30.15 1021 10 16 0.00 0.00
12:55 am 00:55 Clear 52 10.9 45 7.1 78 78 Calm 30.15 1021 10 16 0.00 0.00
1:15 am 01:15 Clear 51 10.5 45 7.1 80 80 Calm 30.15 1021 10 16 0.00 0.00
1:35 am 01:35 Clear 50 10.1 45 7.2 82 82 Calm 30.15 1021 10 16 0.00 0.00
1:55 am 01:55 Clear 48 8.8 43 6.3 84 84 E 3 6 30.15 1021 10 16 0.00 0.00
2:15 am 02:15 Clear 48 9.1 44 6.9 86 86 E 3 6 30.15 1021 10 16 0.00 0.00
2:35 am 02:35 Clear 50 9.9 44 6.9 82 82 Calm 30.15 1021 10 16 0.00 0.00
2:55 am 02:55 Clear 50 9.9 43 6 77 77 SE 5 7 30.15 1021 10 16 0.00 0.00
3:15 am 03:15 Clear 49 9.7 43 6.1 78 78 ESE 3 6 30.15 1021 10 16 0.00 0.00
3:35 am 03:35 Clear 48 8.8 44 6.4 85 85 SSE 3 6 30.15 1021 10 16 0.00 0.00
3:55 am 03:55 Clear 49 9.5 43 6.1 80 80 Calm 30.15 1021 10 16 0.00 0.00
4:15 am 04:15 Clear 49 9.5 43 6 79 79 Calm 30.15 1021 10 16 0.00 0.00
4:35 am 04:35 Clear 47 8.1 43 5.9 86 86 Calm 30.12 1020 10 16 0.00 0.00
4:55 am 04:55 Clear 46 7.8 43 6 89 89 Calm 30.12 1020 10 16 0.00 0.00
5:15 am 05:15 Clear 46 7.5 42 5.8 89 89 Calm 30.15 1021 10 16 0.00 0.00
5:35 am 05:35 Clear 46 7.5 42 5.8 89 89 Calm 30.15 1021 10 16 0.00 0.00
5:55 am 05:55 Clear 45 7 42 5.4 90 90 E 3 6 30.15 1021 10 16 0.00 0.00
6:15 am 06:15 Clear 45 7 42 5.6 91 91 E 3 6 30.15 1021 10 16 0.00 0.00
6:35 am 06:35 Clear 45 7 42 5.6 91 91 E 5 7 30.15 1021 10 16 0.00 0.00
6:55 am 06:55 Clear 44 6.7 42 5.4 92 92 E 3 6 30.15 1021 10 16 0.00 0.00
7:15 am 07:15 Sunny 43 6.2 41 4.9 91 91 ENE 6 9 30.15 1021 10 16 0.00 0.00
7:35 am 07:35 Sunny 44 6.9 42 5.5 91 91 ENE 5 7 30.15 1021 10 16 0.00 0.00
7:55 am 07:55 Sunny 46 7.7 44 6.4 92 92 ENE 5 7 30.12 1020 7 11 0.00 0.00
8:15 am 08:15 Sunny 48 9.1 45 7.4 89 89 E 3 6 30.12 1020 7 11 0.00 0.00
8:35 am 08:35 Sunny 51 10.8 47 8.1 84 84 Calm 30.12 1020 10 16 0.00 0.00
8:55 am 08:55 Sunny 54 12.2 47 8.4 78 78 Calm 30.09 1019 10 16 0.00 0.00
9:15 am 09:15 Sunny 57 13.9 46 7.7 66 66 Calm 30.03 1017 10 16 0.00 0.00
9:35 am 09:35 Sunny 59 15 47 8.4 65 65 SSE 3 6 30.03 1017 10 16 0.00 0.00
9:55 am 09:55 Sunny 62 16.4 48 8.7 61 61 SSE 5 7 30.03 1017 10 16 0.00 0.00
10:15 am 10:15 Sunny 64 17.6 49 9.3 58 58 S 3 6 30.03 1017 10 16 0.00 0.00
10:35 am 10:35 Sunny 66 19.1 48 8.8 51 51 S 6 9 30.03 1017 10 16 0.00 0.00
10:55 am 10:55 Sunny 69 20.3 48 8.8 48 48 SSE 6 9 30.03 1017 10 16 0.00 0.00
11:15 am 11:15 Sunny 71 21.4 48 8.7 44 44 S 3 6 30.00 1016 10 16 0.00 0.00
11:35 am 11:35 Sunny 72 22.4 48 9 43 43 SSE 6 9 30.00 1016 10 16 0.00 0.00
11:55 am 11:55 Sunny 73 23 49 9.4 42 42 SE 8 13 29.97 1015 10 16 0.00 0.00
12:15 pm 12:15 Sunny 75 23.8 50 9.9 41 41 SE 6 9 29.97 1015 10 16 0.00 0.00
12:35 pm 12:35 Sunny 76 24.6 50 9.8 39 39 SE 6 9 29.94 1014 10 16 0.00 0.00
12:55 pm 12:55 Sunny 77 25 50 10 39 39 SE 7 11 29.94 1014 10 16 0.00 0.00
1:15 pm 13:15 Sunny 78 25.7 50 10 37 37 SE 7 11 29.91 1013 10 16 0.00 0.00
1:35 pm 13:35 Sunny 80 26.5 51 10.5 37 37 S 8 13 29.91 1013 10 16 0.00 0.00
1:55 pm 13:55 Sunny 80 26.8 51 10.5 36 36 SSE 8 13 29.91 1013 10 16 0.00 0.00
2:15 pm 14:15 Sunny 81 27.4 51 10.7 35 35 SSE 9 15 29.88 1012 10 16 0.00 0.00
2:35 pm 14:35 Sunny 82 27.7 51 10.8 35 35 SSE 8 13 29.88 1012 10 16 0.00 0.00
2:55 pm 14:55 Sunny 82 27.8 52 11.2 36 36 SE 7 11 29.88 1012 10 16 0.00 0.00
3:15 pm 15:15 Sunny 82 28 52 11.2 35 35 SE 8 13 29.88 1012 10 16 0.00 0.00
3:35 pm 15:35 Sunny 83 28.4 53 11.7 36 36 SE 8 13 29.88 1012 10 16 0.00 0.00
3:55 pm 15:55 Sunny 83 28.5 51 10.4 32 32 SSE 6 9 29.88 1012 10 16 0.00 0.00
4:15 pm 16:15 Sunny 83 28.6 52 11 33 33 S 9 15 29.88 1012 10 16 0.00 0.00
4:35 pm 16:35 Sunny 84 28.7 51 10.8 33 33 SSE 8 13 29.88 1012 10 16 0.00 0.00
4:55 pm 16:55 Sunny 83 28.6 51 10.7 33 33 SSE 8 13 29.88 1012 10 16 0.00 0.00
5:15 pm 17:15 Sunny 83 28.4 51 10.5 33 33 SSE 8 13 29.88 1012 10 16 0.00 0.00
5:35 pm 17:35 Sunny 82 28 52 11.1 35 35 S 9 15 29.88 1012 10 16 0.00 0.00
5:55 pm 17:55 Sunny 82 27.7 52 11.2 36 36 SSE 7 11 29.88 1012 10 16 0.00 0.00
6:15 pm 18:15 Sunny 82 27.5 53 11.7 37 37 SSE 8 13 29.85 1011 10 16 0.00 0.00
6:35 pm 18:35 Sunny 81 27.2 53 11.7 38 38 SE 8 13 29.85 1011 10 16 0.00 0.00
6:55 pm 18:55 Sunny 79 26.3 54 12.3 42 42 SE 7 11 29.88 1012 10 16 0.00 0.00
7:15 pm 19:15 Sunny 78 25.6 54 12.2 43 43 SE 8 13 29.88 1012 10 16 0.00 0.00
7:35 pm 19:35 Sunny 76 24.6 54 12.4 47 47 ESE 6 9 29.88 1012 10 16 0.00 0.00
7:55 pm 19:55 Sunny 74 23.2 56 13.5 55 55 E 6 9 29.91 1013 10 16 0.00 0.00
8:15 pm 20:15 Hazy 69 20.3 59 15 72 72 E 6 9 29.91 1013 5 8 0.00 0.00
8:35 pm 20:35 Clear 68 19.8 58 14.5 72 72 ESE 6 9 29.97 1015 10 16 0.00 0.00
8:55 pm 20:55 Clear 67 19.5 57 13.9 70 70 E 6 9 29.97 1015 10 16 0.00 0.00
9:15 pm 21:15 Clear 67 19.7 56 13.6 68 68 ESE 7 11 29.97 1015 10 16 0.00 0.00
9:35 pm 21:35 Clear 70 20.9 56 13.2 62 62 ESE 7 11 29.94 1014 10 16 0.00 0.00
9:55 pm 21:55 Clear 70 21.3 56 13.2 60 60 SE 8 13 29.94 1014 10 16 0.00 0.00
10:15 pm 22:15 Clear 69 20.4 56 13.4 64 64 SE 6 9 29.94 1014 10 16 0.00 0.00
10:35 pm 22:35 Clear 69 20.5 55 12.7 61 61 SE 7 11 29.94 1014 10 16 0.00 0.00
10:55 pm 22:55 Clear 68 19.8 55 12.5 63 63 ESE 7 11 29.97 1015 10 16 0.00 0.00
11:15 pm 23:15 Partly Cloudy 67 19.5 54 12.2 63 63 ESE 7 11 29.97 1015 10 16 0.00 0.00
11:35 pm 23:35 Mostly Cloudy 67 19.7 54 12 61 61 ESE 7 11 29.97 1015 10 16 0.00 0.00
11:55 pm 23:55 Mostly Cloudy 67 19.7 53 11.6 60 60 ESE 6 9 29.97 1015 10 16 0.00 0.00

Powered by AerisWeather